sat.trackr.live / text

‹ back to catalog

ONEWEB-0128

NORAD 47274 · 2020-100S

PAYLOAD ACTIVE UNKNOWN

§ Identity

Operator
Country
UK
Launch date
2020-12-18
Launch site
VOSTO
Launch vehicle
Mass (kg)
RCS (m²)

Purposes: comms

External: N2YO · Heavens-Above · Gunter

§ Orbital elements

Epoch: 2026-05-25T01:59:49.795872Z

Period
109.72 min
Inclination
87.8947°
Eccentricity
0.0001725
Mean motion
13.12442223 rev/d
Perigee alt
1,212.4 km
Apogee alt
1,215.0 km
Semi-major
7,591.9 km
B*
-6.4497e-4
RAAN
355.2800°
Arg perigee
75.9843°
Mean anomaly
284.1477°
Rev number
26,171

§ Raw data

ONEWEB-01281 47274U 20100S   26145.08321523 -.00000219  00000+0 -64497-3 0  99952 47274  87.8947 355.2800 0001725  75.9843 284.1477 13.12442223261717

JSON: /api/v1/satellites/47274 · /tle

For live sub-satellite position, see the globe view (requires WebGL).

§ Visibility from observer

Set your observer location to see the next 7 days of passes ≥ 10°. The values pass through the URL so the page stays shareable.

No JS? Fill the form by hand. The geolocation button needs JavaScript.